Weather History for Du Bois, PA

Change the Weather History Date:

Friday, April 26, 2013

  Actual Average Record
Temperature  
Mean Temperature 45 °F 51 °F  
Max Temperature 58 °F 62 °F 83 °F (1990)
Min Temperature 32 °F 40 °F 24 °F (2006)
Degree Days  
Heating Degree Days 20 15  
Month to date heating degree days 460 498  
Since 1 July heating degree days 6248 6456  
Cooling Degree Days 0 0  
Month to date cooling degree days 1 0  
Year to date cooling degree days 1 0  
Moisture  
Dew Point 27 °F    
Average Humidity 58    
Maximum Humidity 92    
Minimum Humidity 24    
Precipitation  
Precipitation 0.00 in 0.11 in 4.89 in (1997)
Month to date precipitation 1.85 2.98  
Sea Level Pressure  
Sea Level Pressure 30.41 in    
Wind  
Wind Speed 2 mph (West)    
Max Wind Speed 12 mph    
Max Gust Speed 22 mph    
Visibility 8 miles    
Events      
T = Trace of Precipitation, MM = Missing Value Source: NWS Daily Summary

Daily Weather History Graph

Daily Weather History Graph

Search for Another Location

Airport:

Trip Planner

Search our weather history database for the weather conditions in past years. The results will help you decide how hot, cold, wet, or windy it might be!

Date:

Astronomy

Apr. 26, 2013 Rise Set
Actual Time 6:19 AM EDT 8:07 PM EDT
Civil Twilight 5:50 AM EDT 8:37 PM EDT
Nautical Twilight 5:14 AM EDT 9:13 PM EDT
Astronomical Twilight 4:35 AM EDT 9:51 PM EDT
Moon 9:29 PM EDT (4/26) 6:45 AM EDT (4/26)
Length of Visible Light 14h 47m
Length of Day
13h 47m
Full, 99% of the Moon is Illuminated
Apr 26
Full
May 2
Last Quarter
May 9
New
May 18
First Quarter
May 25
Full

Hourly Weather History & Observations

Time (EDT) Temp. Windchill Dew Point Humidity Pressure Visibility Wind Dir Wind Speed Gust Speed Precip Events Conditions
12:56 AM 37.9 °F 34.4 °F 35.1 °F 89% 30.35 in 9.0 mi West 4.6 mph - N/A   Partly Cloudy
1:56 AM 37.9 °F 35.5 °F 34.0 °F 86% 30.35 in 10.0 mi West 3.5 mph - N/A   Clear
2:56 AM 35.1 °F 32.2 °F 32.0 °F 89% 30.35 in 8.0 mi WSW 3.5 mph - N/A   Clear
3:56 AM 37.0 °F 34.5 °F 33.1 °F 86% 30.37 in 10.0 mi WNW 3.5 mph - N/A   Clear
4:56 AM 34.0 °F - 30.9 °F 89% 30.38 in 4.0 mi Calm Calm - N/A   Clear
5:24 AM 33.8 °F - 30.2 °F 87% 30.36 in 2.0 mi Calm Calm - N/A   Clear
5:35 AM 33.8 °F - 30.2 °F 87% 30.36 in 4.0 mi Calm Calm - N/A   Clear
5:56 AM 33.1 °F - 30.0 °F 89% 30.40 in 4.0 mi Calm Calm - N/A   Clear
6:35 AM 33.8 °F - 30.2 °F 87% 30.38 in 2.5 mi Calm Calm - N/A   Clear
6:47 AM 33.8 °F - 30.2 °F 87% 30.39 in 4.0 mi Calm Calm - N/A   Clear
6:56 AM 33.1 °F - 30.9 °F 92% 30.43 in 4.0 mi Calm Calm - N/A   Clear
7:56 AM 37.9 °F - 34.0 °F 86% 30.44 in 5.0 mi Calm Calm - N/A   Clear
8:56 AM 42.1 °F - 35.1 °F 76% 30.47 in 10.0 mi Calm Calm - N/A   Clear
9:56 AM 45.0 °F - 26.1 °F 48% 30.48 in 10.0 mi Calm Calm - N/A   Clear
10:56 AM 46.9 °F - 27.0 °F 46% 30.48 in 10.0 mi NNE 8.1 mph - N/A   Clear
11:56 AM 48.0 °F - 24.1 °F 39% 30.47 in 10.0 mi NNW 4.6 mph - N/A   Clear
12:56 PM 51.1 °F - 23.0 °F 33% 30.46 in 10.0 mi Variable 5.8 mph - N/A   Clear
1:56 PM 52.0 °F - 21.9 °F 31% 30.44 in 10.0 mi WSW 8.1 mph - N/A   Clear
2:56 PM 54.0 °F - 21.0 °F 28% 30.44 in 10.0 mi Calm Calm - N/A   Clear
3:56 PM 55.0 °F - 21.9 °F 28% 30.42 in 10.0 mi NW 6.9 mph - N/A   Clear
4:56 PM 55.9 °F - 23.0 °F 28% 30.41 in 10.0 mi Calm Calm - N/A   Clear
5:56 PM 55.9 °F - 21.9 °F 27% 30.39 in 10.0 mi WSW 5.8 mph - N/A   Clear
6:56 PM 55.0 °F - 19.0 °F 24% 30.40 in 10.0 mi Calm Calm - N/A   Clear
7:56 PM 54.0 °F - 19.0 °F 25% 30.40 in 10.0 mi WNW 3.5 mph - N/A   Clear
8:56 PM 48.9 °F - 21.9 °F 35% 30.41 in 10.0 mi Calm Calm - N/A   Clear
9:56 PM 48.0 °F - 21.9 °F 36% 30.42 in 10.0 mi SW 3.5 mph - N/A   Clear
10:56 PM 46.9 °F - 21.0 °F 36% 30.42 in 10.0 mi Calm Calm - N/A   Clear
11:56 PM 46.9 °F - 19.9 °F 34% 30.40 in 10.0 mi Calm Calm - N/A   Clear